Regional Weather Roundup
Issued by NWS Green Bay, WI

Home | Current Version | Previous Version | Text Only | Print | Product List | Glossary On
Versions: 1 2 3 4 5 6 7 8 9 10 11 12 13 14 15 16 17 18 19 20 21 22 23 24 25 26 27 28 29 30 31 32 33 34 35 36 37 38 39 40 41 42 43 44 45 46 47 48 49 50
000
ASUS43 KGRB 210500
RWRGRB

NORTH-CENTRAL AND NORTHEAST WISCONSIN REGIONAL WEATHER ROUNDUP
NATIONAL WEATHER SERVICE GREEN BAY WI
1100 PM CST MON FEB 20 2017

WIZ005-009-010>012-018-019-210600-
NORTH CENTRAL WISCONSIN

CITY           SKY/WX    TMP DP  RH WIND       PRES   REMARKS
IRONWOOD       LGT RAIN  49  47  93 S13       29.61F
MANITOWISH WTR NOT AVBL
ARBOR VITAE    NOT AVBL
EAGLE RIVER    NOT AVBL
LAND O LAKES   LGT RAIN  46  46 100 S8        29.69F
RHINELANDER    CLOUDY    48  48 100 S8        29.71F FOG
PHILLIPS       RAIN      48  48 100 S9G21     29.67S
ANTIGO         NOT AVBL
TOMAHAWK       NOT AVBL
MERRILL        NOT AVBL
$$

WIZ013-073-210600-
NORTHEAST WISCONSIN

CITY           SKY/WX    TMP DP  RH WIND       PRES   REMARKS
IRON MOUNTAIN  LGT RAIN  43  40  89 S9        29.76F FOG
MARINETTE      LGT RAIN  46  42  86 S15G28    29.82R
OCONTO         CLOUDY    45  42  89 S12G18    29.82F
$$

WIZ017-030-035>037-045-210600-
CENTRAL WISCONSIN

CITY           SKY/WX    TMP DP  RH WIND       PRES   REMARKS
MEDFORD        NOT AVBL
WAUSAU         FOG       47  47 100 S7        29.73F VSB 1/4
MOSINEE        SNOW      46  46 100 S9        29.75F VSB<1/4
MARSHFIELD     CLOUDY    52  51  97 SW15      29.74S FOG
WISC RAPIDS    CLOUDY    55  55 100 S10       29.78F
STEVENS POINT  NOT AVBL
WAUPACA        LGT RAIN  52  51  96 S8        29.80F
SHAWANO        DRIZZLE   49  47  93 S6        29.80F
CLINTONVILLE   RAIN      48  46  93 S8        29.80S
WAUTOMA        LGT RAIN  53  52  96 S8        29.81F FOG
$$

WIZ038-039-048-051-210600-
FOX VALLEY

CITY           SKY/WX    TMP DP  RH WIND       PRES   REMARKS
NWS GREEN BAY  LGT RAIN  50  47  89 S10       29.83R FOG
APPLETON       DRIZZLE   52  50  93 SW14G20   29.82S FOG
OSHKOSH        LGT RAIN  53  50  89 S13       29.83F
FOND DU LAC    LGT RAIN  52  48  86 S13       29.85R
$$

WIZ022-050-052-210600-
EAST CENTRAL WISCONSIN

CITY           SKY/WX    TMP DP  RH WIND       PRES   REMARKS
EPHRAIM        NOT AVBL
WASHINGTON ISL RAIN      43  37  80 S12G21    29.81F
STURGEON BAY   LGT RAIN  44  40  85 S21G30    29.83F
MANITOWOC      NOT AVBL
SHEBOYGAN      LGT RAIN  47  40  76 S14       29.87S
$$

LMZ563-521-522-541>543-210600-
LAKESHORE

STATION/POSITION TIME  TEMP    WIND        PRES    VSBY  WAVE
                       AIR SEA DIR/SP/G                  HT/PER
                 (UTC) (F)     (DEG/KT/KT) (MB)    (MI)  (FT/S)
SHEBOYGAN LKSHOR 0400   42     180/ 17/ 19 1012.1F
KEWAUNEE LKSHORE 0430   42     190/ 17/ 20 1010.9F
NORTHPORT PIER   0440   42     150/ 14/ 21 1010.2F
SISTER BAY LKSHO 0405   42     190/ 20/ 29   N/A
CHAMBERS ISLAND  0440   46     160/ 10/ 24 1009.5S
MENOMINEE LKSHOR 0430   43     180/ 16/ 22 1009.1F
$$



USA.gov is the U.S. government's official web portal to all federal, state and local government web resources and services.